Location: Albany
(35.0170°S, 117.8920°E)
Time: 02:55:16
(UTC+08:00)

Vanguard 1 - Pass Details

Date: 29 January 2021
Orbit: 649 x 3833 km, 34.2° (Epoch: 26 February)

Event Time Altitude Azimuth Distance (km) Brightness Sun altitude
Rises 03:23:18 0° 265° (W) 3,399 - -21.7°
Reaches altitude 10° 03:26:01 10° 266° (W) 2,258 - -21.3°
Exits shadow 03:29:32 45° 278° (W) 904 9.5 -20.7°
Maximum altitude 03:30:49 74° 351° (N) 684 9.0 -20.5°
Drops below altitude 10° 03:35:21 10° 76° (ENE) 2,125 12.2 -19.8°
Sets 03:37:50 0° 77° (ENE) 3,178 13.2 -19.5°
